Weather History for Franklin, NC

Change the Weather History Date:

Tuesday, December 25, 2012

  Actual Average (KTOC) Record (KTOC)
Temperature  
Mean Temperature 44 °F -  
Max Temperature 46 °F 49 °F 44 °F (2013)
Min Temperature 41 °F 32 °F 25 °F (2013)
Degree Days  
Heating Degree Days 22    
Moisture  
Dew Point 42 °F    
Average Humidity 97    
Maximum Humidity 100    
Minimum Humidity 87    
Precipitation  
Precipitation 0.09 in - - ()
Sea Level Pressure  
Sea Level Pressure 29.97 in    
Wind  
Wind Speed 0 mph (ESE)    
Max Wind Speed 6 mph    
Max Gust Speed -    
Visibility 5 miles    
Events Fog , Rain    
Averages and records for this station are not official NWS values.
T = Trace of Precipitation, MM = Missing Value Source: NWS Daily Summary

Daily Weather History Graph

Daily Weather History Graph

Search for Another Location

Airport:

Trip Planner

Search our weather history database for the weather conditions in past years. The results will help you decide how hot, cold, wet, or windy it might be!

Date:

Astronomy

Dec. 25, 2012 Rise Set
Actual Time 7:40 AM EST 5:27 PM EST
Civil Twilight 7:12 AM EST 5:56 PM EST
Nautical Twilight 6:40 AM EST 6:27 PM EST
Astronomical Twilight 6:09 AM EST 6:58 PM EST
Moon 3:33 PM EST (12/25) 5:13 AM EST (12/25)
Length of Visible Light 10h 43m
Length of Day
9h 47m
Waxing Gibbous, 93% of the Moon is Illuminated
Dec 25
Waxing Gibbous
Dec 28
Full
Jan 4
Last Quarter
Jan 11
New
Jan 18
First Quarter

Hourly Weather History & Observations

Time (EST) Temp. Windchill Dew Point Humidity Pressure Visibility Wind Dir Wind Speed Gust Speed Precip Events Conditions
12:15 AM 42.4 °F - 41.4 °F 96% 29.96 in 0.2 mi Calm Calm - N/A Fog Fog
12:35 AM 42.8 °F - 41.5 °F 95% 29.96 in 0.2 mi Calm Calm - N/A Fog Fog
12:55 AM 42.6 °F - 41.4 °F 95% 29.96 in 0.2 mi Calm Calm - N/A Fog Fog
1:15 AM 42.6 °F - 41.5 °F 96% 29.96 in 1.0 mi Calm Calm - N/A   Overcast
1:35 AM 42.6 °F - 41.5 °F 96% 29.96 in 2.0 mi Calm Calm - N/A   Overcast
1:55 AM 42.3 °F - 41.2 °F 96% 29.96 in 0.8 mi Calm Calm - N/A   Overcast
2:15 AM 42.6 °F - 41.5 °F 96% 29.96 in 0.5 mi Calm Calm - N/A Fog Fog
2:35 AM 42.3 °F - 41.2 °F 96% 29.96 in 0.5 mi Calm Calm - N/A Fog Fog
2:55 AM 42.3 °F - 41.2 °F 96% 29.96 in 0.2 mi Calm Calm - N/A Fog Fog
3:15 AM 42.1 °F - 41.0 °F 96% 29.97 in 0.2 mi Calm Calm - N/A Fog Fog
3:35 AM 42.1 °F - 41.0 °F 96% 29.97 in 0.2 mi Calm Calm - N/A Fog Fog
4:15 AM 42.1 °F - 41.0 °F 96% 29.96 in 0.2 mi Calm Calm - N/A Fog Fog
4:35 AM 42.1 °F - 41.0 °F 96% 29.97 in 0.2 mi Calm Calm - N/A Fog Fog
4:55 AM 41.9 °F - 40.6 °F 95% 29.97 in 0.5 mi Calm Calm - N/A Fog Fog
5:15 AM 41.7 °F - 40.5 °F 95% 29.97 in 0.5 mi Calm Calm - N/A Fog Fog
5:35 AM 41.5 °F - 40.5 °F 96% 29.97 in 0.8 mi Calm Calm - N/A   Overcast
5:55 AM 41.5 °F - 40.3 °F 95% 29.98 in 0.8 mi Calm Calm - N/A   Overcast
6:15 AM 41.4 °F - 40.3 °F 96% 29.99 in 0.8 mi Calm Calm - N/A   Overcast
6:35 AM 41.2 °F - 40.1 °F 96% 30.00 in 1.0 mi Calm Calm - N/A   Overcast
6:55 AM 41.2 °F - 40.1 °F 96% 30.01 in 3.0 mi Calm Calm - N/A   Overcast
7:15 AM 41.0 °F - 39.7 °F 95% 30.01 in 3.0 mi Calm Calm - N/A   Overcast
7:35 AM 41.0 °F - 39.6 °F 95% 30.00 in 2.5 mi Calm Calm - N/A   Overcast
7:55 AM 41.0 °F - 39.7 °F 95% 30.01 in 4.0 mi Calm Calm - N/A   Overcast
8:15 AM 41.0 °F - 39.7 °F 95% 30.02 in 1.5 mi Calm Calm - N/A   Overcast
8:35 AM 41.2 °F 39.2 °F 39.9 °F 95% 30.02 in 1.2 mi East 3.5 mph - N/A   Overcast
8:55 AM 41.0 °F - 39.7 °F 95% 30.03 in 1.8 mi Calm Calm - N/A   Overcast
9:15 AM 41.0 °F 38.0 °F 39.6 °F 95% 30.03 in 2.0 mi ENE 4.6 mph - N/A   Overcast
9:35 AM 41.0 °F 39.0 °F 39.6 °F 95% 30.03 in 4.0 mi East 3.5 mph - N/A   Overcast
9:55 AM 41.2 °F - 40.1 °F 96% 30.04 in 4.0 mi Calm Calm - N/A   Overcast
10:15 AM 41.7 °F - 40.5 °F 95% 30.04 in 5.0 mi Calm Calm - N/A   Overcast
10:35 AM 41.9 °F - 40.5 °F 95% 30.02 in 10.0 mi Calm Calm - N/A   Overcast
10:55 AM 41.9 °F - 40.5 °F 95% 30.02 in 10.0 mi Calm Calm - N/A   Overcast
11:15 AM 42.1 °F - 41.0 °F 96% 30.04 in 10.0 mi Calm Calm - N/A   Overcast
11:35 AM 43.3 °F - 42.1 °F 95% 30.03 in 10.0 mi Calm Calm - N/A   Overcast
11:55 AM 43.2 °F 39.7 °F 41.9 °F 95% 30.02 in 10.0 mi NE 5.8 mph - N/A   Overcast
12:35 PM 43.9 °F - 42.8 °F 96% 30.03 in 10.0 mi Calm Calm - N/A   Overcast
12:55 PM 44.4 °F - 43.2 °F 95% 30.02 in 10.0 mi Calm Calm - N/A   Overcast
1:15 PM 44.6 °F - 43.7 °F 97% 30.01 in 10.0 mi Calm Calm - N/A   Scattered Clouds
1:35 PM 45.3 °F - 43.7 °F 94% 30.00 in 10.0 mi Calm Calm - N/A   Mostly Cloudy
1:55 PM 45.7 °F - 45.5 °F 99% 29.99 in 10.0 mi Calm Calm - N/A   Scattered Clouds
2:15 PM 46.0 °F - 46.0 °F 100% 29.98 in 10.0 mi Calm Calm - N/A   Clear
2:35 PM 46.6 °F - 46.4 °F 99% 29.97 in 10.0 mi Calm Calm - N/A   Clear
2:55 PM 46.4 °F - 45.9 °F 98% 29.98 in 10.0 mi Calm Calm - N/A   Clear
3:15 PM 46.4 °F - 46.0 °F 99% 29.97 in 10.0 mi Calm Calm - N/A   Scattered Clouds
3:35 PM 46.4 °F - 46.0 °F 99% 29.96 in 10.0 mi Calm Calm - N/A   Mostly Cloudy
3:55 PM 46.4 °F - 46.0 °F 99% 29.97 in 10.0 mi Calm Calm - N/A   Mostly Cloudy
4:15 PM 46.4 °F - 46.4 °F 100% 29.97 in 10.0 mi Calm Calm - N/A   Overcast
4:35 PM 45.1 °F - 45.1 °F 100% 29.98 in 10.0 mi Calm Calm - N/A   Overcast
4:55 PM 45.0 °F - 45.0 °F 100% 29.99 in 10.0 mi Calm Calm - N/A Rain Rain
5:15 PM 44.6 °F - 44.6 °F 100% 29.98 in 10.0 mi Calm Calm - N/A   Light Drizzle
5:35 PM 44.6 °F - 44.6 °F 100% 29.98 in 10.0 mi Calm Calm - N/A   Overcast
5:55 PM 44.6 °F - 44.6 °F 100% 29.98 in 10.0 mi Calm Calm - N/A   Overcast
6:15 PM 44.2 °F - 44.2 °F 100% 29.96 in 7.0 mi Calm Calm - N/A   Light Drizzle
6:35 PM 44.1 °F - 44.1 °F 100% 29.94 in 7.0 mi Calm Calm - N/A   Overcast
6:55 PM 43.7 °F - 43.7 °F 100% 29.93 in 5.0 mi Calm Calm - N/A   Overcast
7:15 PM 43.3 °F - 43.3 °F 100% 29.92 in 4.0 mi Calm Calm - N/A   Overcast
7:35 PM 42.8 °F - 42.8 °F 100% 29.91 in 3.0 mi Calm Calm - N/A   Overcast
7:55 PM 42.4 °F - 42.3 °F 99% 29.90 in 2.5 mi Calm Calm - N/A   Overcast
8:15 PM 42.6 °F - 42.3 °F 99% 29.90 in 3.0 mi Calm Calm - N/A   Overcast
8:35 PM 42.6 °F - 41.9 °F 97% 29.91 in 3.0 mi Calm Calm - N/A   Overcast
8:55 PM 44.1 °F 42.5 °F 43.5 °F 98% 29.91 in 10.0 mi SSW 3.5 mph - N/A   Overcast
9:15 PM 46.0 °F - 44.8 °F 95% 29.91 in 10.0 mi Calm Calm - N/A   Overcast
9:35 PM 46.0 °F - 43.7 °F 92% 29.90 in 10.0 mi Calm Calm - N/A   Light Drizzle
9:55 PM 46.4 °F 43.5 °F 42.8 °F 87% 29.89 in 7.0 mi South 5.8 mph - N/A Rain Light Rain
10:15 PM 46.0 °F 44.8 °F 43.7 °F 92% 29.89 in 7.0 mi SSE 3.5 mph - 0.02 in Rain Rain
11:15 PM 45.0 °F - 44.6 °F 99% 29.86 in 7.0 mi Calm Calm - 0.02 in Rain Light Rain
11:35 PM 45.0 °F - 44.8 °F 99% 29.86 in 7.0 mi Calm Calm - 0.04 in Rain Rain
11:55 PM 44.8 °F - 44.4 °F 99% 29.85 in 5.0 mi Calm Calm - 0.07 in Rain Rain